{"data":{"norad_id":32265,"epoch":"2026-09-19T09:59:59.791200Z","epoch_age_seconds":107907,"freshness":"FRESH","line1":"1 32265U 07048C   26262.41666425 -.00000087  00000+0  61494-4 0  9992","line2":"2 32265  51.9581 147.4064 0004012 237.7571 293.4453 12.30390833871822","mean_motion":12.30390833,"eccentricity":0.0004012,"inclination_deg":51.9581,"raan_deg":147.4064,"arg_perigee_deg":237.7571,"mean_anomaly_deg":293.4453,"bstar":6.1494e-5,"rev_number":87182,"period_min":117.03598250069,"perigee_km":1544.4225010435,"apogee_km":1550.782114264,"semimajor_km":7925.7393076538,"source":"CELESTRAK","updated_at":"2026-09-20T09:00:45.017571Z"}}